This is the latest recevied weather packets stored in our database for station/object OE9FWV. If no packets are shown the sender has not sent any weather packets the latest 10 day(s).
| Time | Temp. | Humidity | Pressure | Rain* | Wind** | Luminosity | Snow |
|---|---|---|---|---|---|---|---|
| 1777727178 | 23.89° C | 38% | 1018.2 hPa | 0 mm | - | - | - |
| 1777726574 | 24.44° C | 38% | 1018.3 hPa | 0 mm | - | - | - |
| 1777725362 | 24.44° C | 41% | 1018.6 hPa | 0 mm | - | - | - |
| 1777724762 | 25° C | 40% | 1018.7 hPa | 0 mm | - | - | - |
| 1777722948 | 25.56° C | 44% | 1019.3 hPa | 0 mm | - | - | - |
| 1777722347 | 25.56° C | 42% | 1019.5 hPa | 0 mm | - | - | - |
| 1777721742 | 25.56° C | 43% | 1019.6 hPa | 0 mm | - | - | - |
| 1777721133 | 25.56° C | 42% | 1019.8 hPa | 0 mm | - | - | - |
| 1777720533 | 25.56° C | 42% | 1020.1 hPa | 0 mm | - | - | - |
| 1777719932 | 25° C | 41% | 1020.2 hPa | 0 mm | - | - | - |
| 1777719328 | 25° C | 44% | 1020.3 hPa | 0 mm | - | - | - |
| 1777718718 | 24.44° C | 45% | 1020.3 hPa | 0 mm | - | - | - |
| 1777716907 | 22.22° C | 47% | 1020.9 hPa | 0 mm | - | - | - |
| 1777715696 | 22.78° C | 48% | 1021.2 hPa | 0 mm | - | - | - |
| 1777715096 | 22.78° C | 47% | 1021.3 hPa | 0 mm | - | - | - |
| 1777714496 | 22.78° C | 47% | 1021.4 hPa | 0 mm | - | - | - |
| 1777713886 | 22.22° C | 48% | 1021.5 hPa | 0 mm | - | - | - |
| 1777713283 | 22.22° C | 48% | 1021.5 hPa | 0 mm | - | - | - |
| 1777712683 | 21.67° C | 51% | 1021.7 hPa | 0 mm | - | - | - |
| 1777711471 | 20.56° C | 49% | 1021.8 hPa | 0 mm | - | - | - |
| 1777710870 | 20° C | 50% | 1021.9 hPa | 0 mm | - | - | - |
| 1777710269 | 20° C | 50% | 1022 hPa | 0 mm | - | - | - |
| 1777709666 | 19.44° C | 51% | 1022 hPa | 0 mm | - | - | - |
| 1777709063 | 18.89° C | 51% | 1022.1 hPa | 0 mm | - | - | - |
| 1777707858 | 18.33° C | 54% | 1022.3 hPa | 0 mm | - | - | - |
* Rain latest hour (hover to see other rain measurements)
** Current wind speed in m/s (hover to see current wind gust speed)